,,Stat5,,Stat1,,Stat2,,Stat3,,Stat4,,Wind1,,Wind1,
time,status,PA1M_AVG,status,PR1M_SUM,status,RH1M_AVG,status,SR1M_AVG,status,TA1M_AVG,status,W1dAve1m,status,W1sAve1m,
2003-09-07, 00:00:00,VALID,918.981,VALID,0,VALID,95.8523,VALID,-0.0339617,VALID,21.2219,VALID,350,VALID,0.770765,
2003-09-07, 00:01:00,VALID,918.956,VALID,0,VALID,95.8357,VALID,-0.0679233,VALID,21.1637,VALID,12,VALID,2.32246,
2003-09-07, 00:02:00,VALID,918.906,VALID,0,VALID,95.8421,VALID,0,VALID,21.1056,VALID,18,VALID,2.23623,
2003-09-07, 00:03:00,VALID,918.879,VALID,0,VALID,96.3609,VALID,-0.0509425,VALID,21.1121,VALID,359,VALID,1.06123,
2003-09-07, 00:04:00,VALID,918.849,VALID,0,VALID,95.8739,VALID,0,VALID,21.0542,VALID,339,VALID,1.05807,
2003-09-07, 00:05:00,VALID,918.825,VALID,0,VALID,95.9476,VALID,-0.0169808,VALID,21.0154,VALID,327,VALID,0.650046,
2003-09-07, 00:06:00,VALID,918.794,VALID,0,VALID,96.0748,VALID,-0.0339617,VALID,20.9858,VALID,330,VALID,0.401042,
2003-09-07, 00:07:00,VALID,918.787,VALID,0,VALID,96.3037,VALID,-0.0169808,VALID,20.9726,VALID,331,VALID,0.196691,
2003-09-07, 00:08:00,VALID,918.805,VALID,0,VALID,96.8098,VALID,-0.0509425,VALID,21.0057,VALID,350,VALID,0.282774,
2003-09-07, 00:09:00,VALID,918.813,VALID,0,VALID,96.8607,VALID,0,VALID,21.0283,VALID,9,VALID,0.499107,
2003-09-07, 00:10:00,VALID,918.814,VALID,0,VALID,96.4194,VALID,0,VALID,20.9928,VALID,24,VALID,0.989231,
2003-09-07, 00:11:00,VALID,918.823,VALID,0,VALID,96.7335,VALID,0,VALID,21.0028,VALID,17,VALID,1.19401,
2003-09-07, 00:12:00,VALID,918.829,VALID,0,VALID,96.8111,VALID,-0.0339617,VALID,20.9963,VALID,12,VALID,1.16447,
2003-09-07, 00:13:00,VALID,918.824,VALID,0,VALID,96.9942,VALID,-0.0169808,VALID,20.9933,VALID,13,VALID,1.13795,
2003-09-07, 00:14:00,VALID,918.815,VALID,0,VALID,97.0336,VALID,-0.0509425,VALID,20.9767,VALID,11,VALID,1.42601,
2003-09-07, 00:15:00,VALID,918.808,VALID,0,VALID,97.0565,VALID,-0.0339617,VALID,20.9503,VALID,11,VALID,1.47556,
2003-09-07, 00:16:00,VALID,918.79,VALID,0,VALID,97.0743,VALID,0,VALID,20.9382,VALID,356,VALID,0.793797,
2003-09-07, 00:17:00,VALID,918.784,VALID,0,VALID,96.8594,VALID,-0.0169808,VALID,20.9026,VALID,333,VALID,0.641085,
2003-09-07, 00:18:00,VALID,918.78,VALID,0,VALID,96.867,VALID,-0.0169808,VALID,20.8706,VALID,345,VALID,0.730785,
2003-09-07, 00:19:00,VALID,918.78,VALID,0,VALID,97.1849,VALID,-0.0339617,VALID,20.8639,VALID,4,VALID,0.980804,
2003-09-07, 00:20:00,VALID,918.798,VALID,0,VALID,97.3769,VALID,-0.0509425,VALID,20.8873,VALID,15,VALID,0.82512,
2003-09-07, 00:21:00,VALID,918.802,VALID,0,VALID,97.56,VALID,-0.0509425,VALID,20.9131,VALID,14,VALID,1.39536,
2003-09-07, 00:22:00,VALID,918.811,VALID,0,VALID,97.5537,VALID,-0.0509425,VALID,20.926,VALID,10,VALID,0.853463,
2003-09-07, 00:23:00,VALID,918.825,VALID,0,VALID,97.6796,VALID,-0.0339617,VALID,20.9581,VALID,13,VALID,0.696652,
2003-09-07, 00:24:00,VALID,918.816,VALID,0,VALID,97.1646,VALID,-0.0509425,VALID,20.9161,VALID,19,VALID,1.22567,
2003-09-07, 00:25:00,VALID,918.806,VALID,0,VALID,97.349,VALID,-0.0509425,VALID,20.9217,VALID,23,VALID,0.903646,
2003-09-07, 00:26:00,VALID,918.797,VALID,0,VALID,97.2765,VALID,-0.0339617,VALID,20.9282,VALID,15,VALID,0.647748,
2003-09-07, 00:27:00,VALID,918.788,VALID,0,VALID,96.956,VALID,-0.0339617,VALID,20.8959,VALID,18,VALID,0.999238,
2003-09-07, 00:28:00,VALID,918.787,VALID,0,VALID,97.1798,VALID,-0.0509425,VALID,20.9126,VALID,18,VALID,0.822545,
2003-09-07, 00:29:00,VALID,918.774,VALID,0,VALID,97.2752,VALID,-0.0169808,VALID,20.9387,VALID,19,VALID,0.695946,
2003-09-07, 00:30:00,VALID,918.767,VALID,0,VALID,97.2078,VALID,-0.0509425,VALID,20.929,VALID,26,VALID,0.752387,
2003-09-07, 00:31:00,VALID,918.754,VALID,0,VALID,97.2663,VALID,0,VALID,20.9185,VALID,23,VALID,0.842882,
2003-09-07, 00:32:00,VALID,918.76,VALID,0,VALID,97.3401,VALID,-0.0169808,VALID,20.9446,VALID,22,VALID,0.751028,
2003-09-07, 00:33:00,VALID,918.754,VALID,0,VALID,97.3655,VALID,0,VALID,20.9546,VALID,16,VALID,0.770221,
2003-09-07, 00:34:00,VALID,918.744,VALID,0,VALID,97.4392,VALID,-0.0169808,VALID,20.9678,VALID,17,VALID,0.851351,
2003-09-07, 00:35:00,VALID,918.731,VALID,0,VALID,97.4125,VALID,-0.0169808,VALID,20.961,VALID,21,VALID,0.988281,
2003-09-07, 00:36:00,VALID,918.741,VALID,0,VALID,97.5346,VALID,-0.0339617,VALID,20.9742,VALID,22,VALID,0.905165,
2003-09-07, 00:37:00,VALID,918.739,VALID,0,VALID,97.527,VALID,-0.0169808,VALID,20.9874,VALID,24,VALID,0.905649,
2003-09-07, 00:38:00,VALID,918.74,VALID,0,VALID,97.3388,VALID,0,VALID,20.9648,VALID,26,VALID,0.733941,
2003-09-07, 00:39:00,VALID,918.745,VALID,0,VALID,97.2142,VALID,-0.0339617,VALID,20.9322,VALID,11,VALID,0.785362,
2003-09-07, 00:40:00,VALID,918.756,VALID,0,VALID,97.0145,VALID,0,VALID,20.9034,VALID,19,VALID,0.785684,
2003-09-07, 00:41:00,VALID,918.754,VALID,0,VALID,96.9484,VALID,0,VALID,20.897,VALID,17,VALID,1.21205,
2003-09-07, 00:42:00,VALID,918.747,VALID,0,VALID,96.5072,VALID,-0.0339617,VALID,20.8447,VALID,13,VALID,1.05246,
2003-09-07, 00:43:00,VALID,918.742,VALID,0,VALID,96.5466,VALID,0,VALID,20.8442,VALID,19,VALID,1.00804,
2003-09-07, 00:44:00,VALID,918.733,VALID,0,VALID,96.731,VALID,-0.0169808,VALID,20.8709,VALID,20,VALID,1.09354,
2003-09-07, 00:45:00,VALID,918.721,VALID,0,VALID,96.6547,VALID,-0.0339617,VALID,20.8609,VALID,9,VALID,1.40379,
2003-09-07, 00:46:00,VALID,918.713,VALID,0,VALID,96.4652,VALID,0,VALID,20.8224,VALID,13,VALID,1.5919,
2003-09-07, 00:47:00,VALID,918.708,VALID,0,VALID,96.5262,VALID,-0.0169808,VALID,20.7966,VALID,9,VALID,1.24337,
2003-09-07, 00:48:00,VALID,918.7,VALID,0,VALID,96.6776,VALID,-0.0339617,VALID,20.7941,VALID,14,VALID,0.978002,
2003-09-07, 00:49:00,VALID,918.709,VALID,0,VALID,96.8772,VALID,0,VALID,20.7933,VALID,18,VALID,0.871311,
2003-09-07, 00:50:00,VALID,918.713,VALID,0,VALID,96.9955,VALID,-0.0169808,VALID,20.7898,VALID,13,VALID,0.786595,
2003-09-07, 00:51:00,VALID,918.724,VALID,0,VALID,96.9281,VALID,0,VALID,20.7939,VALID,7,VALID,0.546669,
2003-09-07, 00:52:00,VALID,918.75,VALID,0,VALID,96.7526,VALID,-0.0169808,VALID,20.7581,VALID,357,VALID,0.78125,
2003-09-07, 00:53:00,VALID,918.755,VALID,0,VALID,96.6776,VALID,-0.0169808,VALID,20.7422,VALID,354,VALID,0.801809,
2003-09-07, 00:54:00,VALID,918.759,VALID,0,VALID,96.97,VALID,-0.0169808,VALID,20.7454,VALID,13,VALID,1.17779,
2003-09-07, 00:55:00,VALID,918.761,VALID,0,VALID,97.0209,VALID,0,VALID,20.7774,VALID,11,VALID,1.14696,
2003-09-07, 00:56:00,VALID,918.747,VALID,0,VALID,97.0654,VALID,-0.0169808,VALID,20.7968,VALID,11,VALID,0.806588,
2003-09-07, 00:57:00,VALID,918.749,VALID,0,VALID,96.7475,VALID,-0.0339617,VALID,20.7877,VALID,337,VALID,0.831801,
2003-09-07, 00:58:00,VALID,918.759,VALID,0,VALID,96.319,VALID,-0.0679233,VALID,20.7747,VALID,315,VALID,0.327123,
2003-09-07, 00:59:00,VALID,918.751,VALID,0,VALID,96.5644,VALID,-0.0679233,VALID,20.7842,VALID,2,VALID,0.464063,
2003-09-07, 01:00:00,VALID,918.753,VALID,0,VALID,96.5796,VALID,-0.0169808,VALID,20.7995,VALID,20,VALID,0.658361,
2003-09-07, 01:01:00,VALID,918.742,VALID,0,VALID,96.6648,VALID,-0.0339617,VALID,20.8127,VALID,5,VALID,1.08268,
2003-09-07, 01:02:00,VALID,918.732,VALID,0,VALID,96.0952,VALID,-0.0169808,VALID,20.7939,VALID,349,VALID,0.76888,
2003-09-07, 01:03:00,VALID,918.709,VALID,0,VALID,96.2795,VALID,-0.0169808,VALID,20.8062,VALID,1,VALID,0.495355,
2003-09-07, 01:04:00,VALID,918.701,VALID,0,VALID,96.0036,VALID,0,VALID,20.7863,VALID,2,VALID,0.598661,
2003-09-07, 01:05:00,VALID,918.671,VALID,0,VALID,96.1498,VALID,-0.0679233,VALID,20.8065,VALID,2,VALID,0.419071,
2003-09-07, 01:06:00,VALID,918.665,VALID,0,VALID,96.2757,VALID,-0.0169808,VALID,20.8197,VALID,14,VALID,0.384375,
2003-09-07, 01:07:00,VALID,918.67,VALID,0,VALID,96.5898,VALID,0,VALID,20.8517,VALID,19,VALID,0.482686,
2003-09-07, 01:08:00,VALID,918.658,VALID,0,VALID,96.3266,VALID,-0.0169808,VALID,20.8641,VALID,21,VALID,0.395399,
2003-09-07, 01:09:00,VALID,918.667,VALID,0,VALID,96.2274,VALID,0,VALID,20.8612,VALID,21,VALID,0.0803571,
2003-09-07, 01:10:00,VALID,918.668,VALID,0,VALID,96.1193,VALID,0,VALID,20.8517,VALID,21,VALID,0,
2003-09-07, 01:11:00,VALID,918.671,VALID,0,VALID,95.8752,VALID,-0.0339617,VALID,20.8358,VALID,22,VALID,0.244485,
2003-09-07, 01:12:00,VALID,918.648,VALID,0,VALID,95.8981,VALID,-0.0169808,VALID,20.8296,VALID,22,VALID,0.000400641,
2003-09-07, 01:13:00,VALID,918.662,VALID,0,VALID,96.1358,VALID,-0.0339617,VALID,20.8291,VALID,22,VALID,0.0078125,
2003-09-07, 01:14:00,VALID,918.658,VALID,0,VALID,96.1091,VALID,0,VALID,20.8391,VALID,22,VALID,0.00689338,
2003-09-07, 01:15:00,VALID,918.635,VALID,0,VALID,96.1854,VALID,0.0169808,VALID,20.8619,VALID,22,VALID,0,
2003-09-07, 01:16:00,VALID,918.612,VALID,0,VALID,95.9464,VALID,-0.0339617,VALID,20.842,VALID,22,VALID,0,
2003-09-07, 01:17:00,VALID,918.572,VALID,0,VALID,95.9222,VALID,0,VALID,20.8525,VALID,22,VALID,0.0701122,
2003-09-07, 01:18:00,VALID,918.543,VALID,0,VALID,96.057,VALID,-0.0339617,VALID,20.8749,VALID,33,VALID,0.0913826,
2003-09-07, 01:19:00,VALID,918.512,VALID,0,VALID,96.1066,VALID,0,VALID,20.891,VALID,129,VALID,0.166596,
2003-09-07, 01:20:00,VALID,918.488,VALID,0,VALID,96.1308,VALID,0,VALID,20.8746,VALID,152,VALID,0.270536,
2003-09-07, 01:21:00,VALID,918.475,VALID,0,VALID,96.0405,VALID,-0.0509425,VALID,20.8749,VALID,190,VALID,0.0491071,
2003-09-07, 01:22:00,VALID,918.453,VALID,0,VALID,96.1536,VALID,0,VALID,20.8582,VALID,190,VALID,0.0122196,
2003-09-07, 01:23:00,VALID,918.446,VALID,0,VALID,96.3164,VALID,0,VALID,20.8778,VALID,190,VALID,0,
2003-09-07, 01:24:00,VALID,918.421,VALID,0,VALID,96.2948,VALID,0,VALID,20.8811,VALID,190,VALID,0,
2003-09-07, 01:25:00,VALID,918.402,VALID,0,VALID,96.4588,VALID,-0.0169808,VALID,20.8835,VALID,190,VALID,0,
2003-09-07, 01:26:00,VALID,918.392,VALID,0,VALID,96.4448,VALID,-0.0169808,VALID,20.9193,VALID,190,VALID,0.0168919,
2003-09-07, 01:27:00,VALID,918.384,VALID,0,VALID,96.2846,VALID,-0.0169808,VALID,20.9094,VALID,190,VALID,0.0496962,
2003-09-07, 01:28:00,VALID,918.346,VALID,0,VALID,96.277,VALID,0,VALID,20.9198,VALID,190,VALID,0.359158,
2003-09-07, 01:29:00,VALID,918.33,VALID,0,VALID,96.3571,VALID,0,VALID,20.9161,VALID,190,VALID,0.152549,
2003-09-07, 01:30:00,VALID,918.303,VALID,0,VALID,96.3864,VALID,-0.0169808,VALID,20.9325,VALID,190,VALID,0.0351563,
2003-09-07, 01:31:00,VALID,918.275,VALID,0,VALID,96.0913,VALID,-0.0169808,VALID,20.9131,VALID,286,VALID,0.29772,
2003-09-07, 01:32:00,VALID,918.263,VALID,0,VALID,96.0888,VALID,-0.0169808,VALID,20.9005,VALID,12,VALID,0.577908,
2003-09-07, 01:33:00,VALID,918.244,VALID,0,VALID,96.202,VALID,0,VALID,20.8997,VALID,14,VALID,0.743056,
2003-09-07, 01:34:00,VALID,918.236,VALID,0,VALID,96.2388,VALID,-0.0509425,VALID,20.9196,VALID,20,VALID,1.02464,
2003-09-07, 01:35:00,VALID,918.226,VALID,0,VALID,96.1575,VALID,-0.0169808,VALID,20.9101,VALID,11,VALID,1.13368,
2003-09-07, 01:36:00,VALID,918.206,VALID,0,VALID,96.1943,VALID,0,VALID,20.9166,VALID,23,VALID,1.05674,
2003-09-07, 01:37:00,VALID,918.206,VALID,0,VALID,95.9324,VALID,0,VALID,20.8843,VALID,2,VALID,1.25591,
2003-09-07, 01:38:00,VALID,918.195,VALID,0,VALID,95.823,VALID,-0.0339617,VALID,20.852,VALID,354,VALID,0.771652,
2003-09-07, 01:39:00,VALID,918.186,VALID,0,VALID,96.0748,VALID,-0.0169808,VALID,20.8455,VALID,19,VALID,0.639732,
2003-09-07, 01:40:00,VALID,918.174,VALID,0,VALID,96.216,VALID,0,VALID,20.8517,VALID,18,VALID,0.559152,
2003-09-07, 01:41:00,VALID,918.161,VALID,0,VALID,96.1053,VALID,-0.0339617,VALID,20.842,VALID,349,VALID,0.740132,
2003-09-07, 01:42:00,VALID,918.167,VALID,0,VALID,96.1053,VALID,-0.0339617,VALID,20.8162,VALID,348,VALID,0.481027,
2003-09-07, 01:43:00,VALID,918.156,VALID,0,VALID,96.216,VALID,-0.0169808,VALID,20.8038,VALID,348,VALID,0.292763,
2003-09-07, 01:44:00,VALID,918.153,VALID,0,VALID,96.4881,VALID,0,VALID,20.813,VALID,13,VALID,0.64607,
2003-09-07, 01:45:00,VALID,918.136,VALID,0,VALID,96.5669,VALID,0,VALID,20.8122,VALID,22,VALID,0.806127,
2003-09-07, 01:46:00,VALID,918.129,VALID,0,VALID,96.7488,VALID,-0.0169808,VALID,20.8259,VALID,27,VALID,0.759332,
2003-09-07, 01:47:00,VALID,918.134,VALID,0,VALID,96.7106,VALID,-0.0169808,VALID,20.8455,VALID,26,VALID,0.568668,
2003-09-07, 01:48:00,VALID,918.118,VALID,0,VALID,96.6114,VALID,-0.0849042,VALID,20.8159,VALID,9,VALID,0.739309,
2003-09-07, 01:49:00,VALID,918.11,VALID,0,VALID,96.6254,VALID,-0.0169808,VALID,20.8165,VALID,355,VALID,0.693576,
2003-09-07, 01:50:00,VALID,918.097,VALID,0,VALID,96.6458,VALID,-0.0169808,VALID,20.8073,VALID,20,VALID,0.915913,
2003-09-07, 01:51:00,VALID,918.079,VALID,0,VALID,96.8187,VALID,-0.0509425,VALID,20.814,VALID,12,VALID,0.678421,
2003-09-07, 01:52:00,VALID,918.053,VALID,0,VALID,96.8975,VALID,-0.0169808,VALID,20.7901,VALID,17,VALID,0.823902,
2003-09-07, 01:53:00,VALID,918.012,VALID,0,VALID,96.923,VALID,0,VALID,20.7874,VALID,12,VALID,1.00084,
2003-09-07, 01:54:00,VALID,917.969,VALID,0,VALID,96.8632,VALID,-0.0169808,VALID,20.7812,VALID,6,VALID,0.5733,
2003-09-07, 01:55:00,VALID,917.918,VALID,0,VALID,96.9891,VALID,0,VALID,20.7747,VALID,7,VALID,0.673478,
2003-09-07, 01:56:00,VALID,917.89,VALID,0,VALID,96.867,VALID,-0.0339617,VALID,20.7454,VALID,5,VALID,1.06607,
2003-09-07, 01:57:00,VALID,917.85,VALID,0,VALID,97.1074,VALID,0,VALID,20.7322,VALID,29,VALID,0.823691,
2003-09-07, 01:58:00,VALID,917.825,VALID,0,VALID,97.2154,VALID,-0.0509425,VALID,20.732,VALID,354,VALID,0.702257,
2003-09-07, 01:59:00,VALID,917.815,VALID,0,VALID,97.1646,VALID,-0.0509425,VALID,20.7193,VALID,358,VALID,1.02214,
2003-09-07, 02:00:00,VALID,917.792,VALID,0,VALID,96.9929,VALID,-0.0339617,VALID,20.6902,VALID,351,VALID,0.93011,
2003-09-07, 02:01:00,VALID,917.796,VALID,0,VALID,97.0972,VALID,-0.0339617,VALID,20.6641,VALID,11,VALID,1.14219,
2003-09-07, 02:02:00,VALID,917.802,VALID,0,VALID,97.2282,VALID,-0.0339617,VALID,20.6547,VALID,1,VALID,1.09275,
2003-09-07, 02:03:00,VALID,917.827,VALID,0,VALID,97.2447,VALID,0,VALID,20.6512,VALID,12,VALID,1.12924,
2003-09-07, 02:04:00,VALID,917.836,VALID,0,VALID,97.3591,VALID,0,VALID,20.6584,VALID,351,VALID,1.08552,
2003-09-07, 02:05:00,VALID,917.861,VALID,0,VALID,97.3477,VALID,0,VALID,20.6485,VALID,13,VALID,1.21376,
2003-09-07, 02:06:00,VALID,917.889,VALID,0,VALID,97.4443,VALID,0,VALID,20.6348,VALID,13,VALID,1.1942,
2003-09-07, 02:07:00,VALID,917.903,VALID,0,VALID,97.4214,VALID,-0.0339617,VALID,20.6488,VALID,17,VALID,0.805743,
2003-09-07, 02:08:00,VALID,917.93,VALID,0,VALID,97.4647,VALID,-0.0169808,VALID,20.6579,VALID,360,VALID,0.944623,
2003-09-07, 02:09:00,VALID,917.95,VALID,0,VALID,97.1887,VALID,-0.0169808,VALID,20.6388,VALID,355,VALID,1.05889,
2003-09-07, 02:10:00,VALID,917.962,VALID,0,VALID,97.1531,VALID,0,VALID,20.6294,VALID,5,VALID,0.855824,
2003-09-07, 02:11:00,VALID,917.971,VALID,0,VALID,97.1926,VALID,-0.0169808,VALID,20.6192,VALID,18,VALID,0.788603,
2003-09-07, 02:12:00,VALID,917.977,VALID,0,VALID,97.2256,VALID,-0.0679233,VALID,20.6353,VALID,16,VALID,1.13492,
2003-09-07, 02:13:00,VALID,917.986,VALID,0,VALID,97.2549,VALID,-0.0169808,VALID,20.6716,VALID,18,VALID,0.485268,
2003-09-07, 02:14:00,VALID,917.995,VALID,0,VALID,97.2116,VALID,-0.0339617,VALID,20.688,VALID,13,VALID,0.430689,
2003-09-07, 02:15:00,VALID,917.99,VALID,0,VALID,97.1468,VALID,-0.0339617,VALID,20.7037,VALID,5,VALID,0.548295,
2003-09-07, 02:16:00,VALID,917.989,VALID,0,VALID,97.0565,VALID,-0.0169808,VALID,20.7136,VALID,20,VALID,1.05427,
2003-09-07, 02:17:00,VALID,917.987,VALID,0,VALID,96.9433,VALID,-0.0339617,VALID,20.7066,VALID,6,VALID,0.629018,
2003-09-07, 02:18:00,VALID,917.998,VALID,0,VALID,96.8683,VALID,-0.0509425,VALID,20.7064,VALID,13,VALID,0.6,
2003-09-07, 02:19:00,VALID,917.998,VALID,0,VALID,96.839,VALID,-0.0849042,VALID,20.7233,VALID,24,VALID,0.434095,
2003-09-07, 02:20:00,VALID,918.005,VALID,0,VALID,96.8619,VALID,-0.0339617,VALID,20.7131,VALID,17,VALID,0.45795,
2003-09-07, 02:21:00,VALID,918.013,VALID,0,VALID,96.7818,VALID,-0.0169808,VALID,20.7198,VALID,15,VALID,0.392149,
2003-09-07, 02:22:00,VALID,918.017,VALID,0,VALID,96.8886,VALID,-0.0679233,VALID,20.736,VALID,14,VALID,0.523884,
2003-09-07, 02:23:00,VALID,918.03,VALID,0,VALID,96.8823,VALID,-0.0849042,VALID,20.7526,VALID,13,VALID,0.473184,
2003-09-07, 02:24:00,VALID,918.033,VALID,0,VALID,96.8327,VALID,-0.0169808,VALID,20.7524,VALID,17,VALID,0.741536,
2003-09-07, 02:25:00,VALID,918.042,VALID,0,VALID,96.8759,VALID,-0.0679233,VALID,20.7583,VALID,21,VALID,0.28559,
2003-09-07, 02:26:00,VALID,918.039,VALID,0,VALID,96.8607,VALID,-0.0339617,VALID,20.7747,VALID,21,VALID,0.325041,
2003-09-07, 02:27:00,VALID,918.027,VALID,0,VALID,96.806,VALID,0,VALID,20.7742,VALID,21,VALID,0.00597426,
2003-09-07, 02:28:00,VALID,918.026,VALID,0,VALID,96.6865,VALID,-0.0509425,VALID,20.761,VALID,21,VALID,0,
2003-09-07, 02:29:00,VALID,918.012,VALID,0,VALID,96.6725,VALID,0,VALID,20.7583,VALID,21,VALID,0,
2003-09-07, 02:30:00,VALID,918.008,VALID,0,VALID,96.7805,VALID,-0.0339617,VALID,20.7742,VALID,20,VALID,0.0770399,
2003-09-07, 02:31:00,VALID,917.991,VALID,0,VALID,96.8785,VALID,-0.0169808,VALID,20.8033,VALID,16,VALID,0.0673077,
2003-09-07, 02:32:00,VALID,918.005,VALID,0,VALID,96.6356,VALID,-0.0169808,VALID,20.7941,VALID,15,VALID,0.00260417,
2003-09-07, 02:33:00,VALID,918.018,VALID,0,VALID,96.6305,VALID,0,VALID,20.7804,VALID,15,VALID,0.120271,
2003-09-07, 02:34:00,VALID,918.019,VALID,0,VALID,96.6508,VALID,0,VALID,20.7812,VALID,15,VALID,0.088049,
2003-09-07, 02:35:00,VALID,918.024,VALID,0,VALID,96.7475,VALID,-0.0339617,VALID,20.7812,VALID,15,VALID,0.0174107,
2003-09-07, 02:36:00,VALID,918.04,VALID,0,VALID,96.6877,VALID,-0.0339617,VALID,20.7677,VALID,341,VALID,0.321429,
2003-09-07, 02:37:00,VALID,918.057,VALID,0,VALID,96.3355,VALID,-0.0339617,VALID,20.729,VALID,302,VALID,0.410937,
2003-09-07, 02:38:00,VALID,918.059,VALID,0,VALID,96.3838,VALID,-0.0849042,VALID,20.7166,VALID,7,VALID,0.792352,
2003-09-07, 02:39:00,VALID,918.062,VALID,0,VALID,96.5847,VALID,-0.0509425,VALID,20.7225,VALID,360,VALID,0.820536,
2003-09-07, 02:40:00,VALID,918.078,VALID,0,VALID,96.6508,VALID,-0.0169808,VALID,20.7228,VALID,12,VALID,0.903372,
2003-09-07, 02:41:00,VALID,918.079,VALID,0,VALID,96.8352,VALID,-0.0509425,VALID,20.7228,VALID,19,VALID,1.01231,
2003-09-07, 02:42:00,VALID,918.086,VALID,0,VALID,96.8441,VALID,-0.0169808,VALID,20.7325,VALID,12,VALID,0.728002,
2003-09-07, 02:43:00,VALID,918.096,VALID,0,VALID,96.7971,VALID,-0.0679233,VALID,20.7392,VALID,9,VALID,0.566406,
2003-09-07, 02:44:00,VALID,918.107,VALID,0,VALID,96.7882,VALID,0,VALID,20.7292,VALID,9,VALID,0.637747,
2003-09-07, 02:45:00,VALID,918.097,VALID,0,VALID,96.7984,VALID,-0.0339617,VALID,20.7327,VALID,8,VALID,0.685855,
2003-09-07, 02:46:00,VALID,918.084,VALID,0,VALID,96.5746,VALID,-0.0509425,VALID,20.6999,VALID,352,VALID,0.966797,
2003-09-07, 02:47:00,VALID,918.077,VALID,0,VALID,96.4843,VALID,-0.0509425,VALID,20.6579,VALID,349,VALID,0.568873,
2003-09-07, 02:48:00,VALID,918.052,VALID,0,VALID,96.7755,VALID,0,VALID,20.6646,VALID,9,VALID,0.747255,
2003-09-07, 02:49:00,VALID,918.021,VALID,0,VALID,96.9535,VALID,-0.0509425,VALID,20.6808,VALID,358,VALID,0.820101,
2003-09-07, 02:50:00,VALID,918.001,VALID,0,VALID,96.7475,VALID,-0.0169808,VALID,20.6614,VALID,344,VALID,0.919975,
2003-09-07, 02:51:00,VALID,917.984,VALID,0,VALID,96.8429,VALID,-0.0339617,VALID,20.6455,VALID,15,VALID,0.806066,
2003-09-07, 02:52:00,VALID,917.962,VALID,0,VALID,96.9942,VALID,0,VALID,20.6418,VALID,12,VALID,1.05068,
2003-09-07, 02:53:00,VALID,917.938,VALID,0,VALID,97.0679,VALID,-0.0509425,VALID,20.642,VALID,11,VALID,0.775223,
2003-09-07, 02:54:00,VALID,917.93,VALID,0,VALID,96.9344,VALID,-0.0509425,VALID,20.6254,VALID,334,VALID,0.449113,
2003-09-07, 02:55:00,VALID,917.912,VALID,0,VALID,96.8861,VALID,0,VALID,20.6194,VALID,358,VALID,0.286241,
2003-09-07, 02:56:00,VALID,917.878,VALID,0,VALID,97.0018,VALID,-0.0509425,VALID,20.6356,VALID,359,VALID,0.623698,
2003-09-07, 02:57:00,VALID,917.853,VALID,0,VALID,96.867,VALID,0,VALID,20.6127,VALID,332,VALID,0.580448,
2003-09-07, 02:58:00,VALID,917.81,VALID,0,VALID,96.9039,VALID,0,VALID,20.5966,VALID,333,VALID,0.310045,
2003-09-07, 02:59:00,VALID,917.751,VALID,0,VALID,96.9611,VALID,-0.0169808,VALID,20.5904,VALID,335,VALID,0.0803285,
2003-09-07, 03:00:00,VALID,917.721,VALID,0,VALID,97.1633,VALID,-0.0509425,VALID,20.5968,VALID,335,VALID,0.0504464,
2003-09-07, 03:01:00,VALID,917.672,VALID,0,VALID,97.3502,VALID,-0.0169808,VALID,20.6227,VALID,335,VALID,0,
2003-09-07, 03:02:00,VALID,917.637,VALID,0,VALID,97.3375,VALID,-0.0169808,VALID,20.6251,VALID,335,VALID,0,
2003-09-07, 03:03:00,VALID,917.604,VALID,0,VALID,97.3579,VALID,0.0169808,VALID,20.6455,VALID,335,VALID,0,
2003-09-07, 03:04:00,VALID,917.58,VALID,0,VALID,97.265,VALID,-0.0169808,VALID,20.645,VALID,335,VALID,0.0295608,
2003-09-07, 03:05:00,VALID,917.545,VALID,0,VALID,97.2002,VALID,-0.0169808,VALID,20.6547,VALID,329,VALID,0.106158,
2003-09-07, 03:06:00,VALID,917.527,VALID,0,VALID,97.1188,VALID,0,VALID,20.6415,VALID,267,VALID,0.0629006,
2003-09-07, 03:07:00,VALID,917.5,VALID,0,VALID,97.1302,VALID,0,VALID,20.6453,VALID,255,VALID,0,
2003-09-07, 03:08:00,VALID,917.484,VALID,0,VALID,97.1404,VALID,-0.0339617,VALID,20.6646,VALID,255,VALID,0,
2003-09-07, 03:09:00,VALID,917.455,VALID,0,VALID,97.1417,VALID,0,VALID,20.6577,VALID,255,VALID,0,
2003-09-07, 03:10:00,VALID,917.429,VALID,0,VALID,97.1964,VALID,0,VALID,20.6776,VALID,273,VALID,0.133929,
2003-09-07, 03:11:00,VALID,917.4,VALID,0,VALID,97.3235,VALID,0,VALID,20.6805,VALID,355,VALID,0.480569,
2003-09-07, 03:12:00,VALID,917.368,VALID,0,VALID,97.4354,VALID,0.0169808,VALID,20.7026,VALID,12,VALID,0.783144,
2003-09-07, 03:13:00,VALID,917.337,VALID,0,VALID,97.4342,VALID,0.0169808,VALID,20.7093,VALID,17,VALID,0.821579,
2003-09-07, 03:14:00,VALID,917.307,VALID,0,VALID,97.321,VALID,0,VALID,20.69,VALID,22,VALID,0.826339,
2003-09-07, 03:15:00,VALID,917.291,VALID,0,VALID,97.3172,VALID,0,VALID,20.6676,VALID,16,VALID,0.708482,
2003-09-07, 03:16:00,VALID,917.296,VALID,0,VALID,97.0934,VALID,0.0339617,VALID,20.6224,VALID,27,VALID,0.763421,
2003-09-07, 03:17:00,VALID,917.308,VALID,0,VALID,97.1773,VALID,0,VALID,20.5836,VALID,40,VALID,0.46829,
2003-09-07, 03:18:00,VALID,917.317,VALID,0,VALID,97.2981,VALID,0.0339617,VALID,20.5643,VALID,37,VALID,0.487424,
2003-09-07, 03:19:00,VALID,917.338,VALID,0,VALID,97.3871,VALID,0,VALID,20.5414,VALID,30,VALID,0.46317,
2003-09-07, 03:20:00,VALID,917.347,VALID,0,VALID,97.4494,VALID,0.0169808,VALID,20.529,VALID,57,VALID,0.436867,
2003-09-07, 03:21:00,VALID,917.368,VALID,0,VALID,97.4723,VALID,0,VALID,20.5091,VALID,60,VALID,0.487413,
2003-09-07, 03:22:00,VALID,917.373,VALID,0,VALID,97.4647,VALID,0.0169808,VALID,20.4892,VALID,72,VALID,0.510851,
2003-09-07, 03:23:00,VALID,917.37,VALID,0,VALID,97.4787,VALID,0.0339617,VALID,20.4765,VALID,72,VALID,0.581414,
2003-09-07, 03:24:00,VALID,917.348,VALID,0,VALID,97.5499,VALID,0,VALID,20.4738,VALID,55,VALID,0.887638,
2003-09-07, 03:25:00,VALID,917.334,VALID,0,VALID,97.5931,VALID,0,VALID,20.4639,VALID,20,VALID,0.967272,
2003-09-07, 03:26:00,VALID,917.3,VALID,0,VALID,97.6363,VALID,0,VALID,20.4644,VALID,22,VALID,1.2947,
2003-09-07, 03:27:00,VALID,917.269,VALID,0,VALID,97.6961,VALID,0,VALID,20.4604,VALID,360,VALID,0.883898,
2003-09-07, 03:28:00,VALID,917.248,VALID,0,VALID,97.6898,VALID,0.0339617,VALID,20.4969,VALID,23,VALID,0.976963,
2003-09-07, 03:29:00,VALID,917.211,VALID,0,VALID,97.3706,VALID,0,VALID,20.4577,VALID,26,VALID,0.822917,
2003-09-07, 03:30:00,VALID,917.171,VALID,0,VALID,97.4431,VALID,0,VALID,20.4542,VALID,22,VALID,0.407484,
2003-09-07, 03:31:00,VALID,917.155,VALID,0,VALID,97.4113,VALID,0,VALID,20.4743,VALID,18,VALID,0.168074,
2003-09-07, 03:32:00,VALID,917.114,VALID,0,VALID,97.3744,VALID,0,VALID,20.4445,VALID,18,VALID,0.00558036,
2003-09-07, 03:33:00,VALID,917.083,VALID,0,VALID,97.3337,VALID,0,VALID,20.4515,VALID,17,VALID,0.136607,
2003-09-07, 03:34:00,VALID,917.045,VALID,0,VALID,97.251,VALID,0,VALID,20.4356,VALID,17,VALID,0.216295,
2003-09-07, 03:35:00,VALID,917.012,VALID,0,VALID,97.2714,VALID,0,VALID,20.4154,VALID,12,VALID,0.413651,
2003-09-07, 03:36:00,VALID,917.003,VALID,0,VALID,97.3095,VALID,0,VALID,20.4323,VALID,11,VALID,0.445536,
2003-09-07, 03:37:00,VALID,917.022,VALID,0,VALID,97.2154,VALID,0,VALID,20.4057,VALID,4,VALID,0.80736,